Home   Weather   Linares   Past weeks

Flag for Spain Past Weather in Linares, Spain — Yesterday and Last 2 Weeks

Now
32 °F

Sunny.


Feels Like: 32 °F
Forecast: 28 / 54 °F
Wind: No wind

Location: Granada / Aeropuerto

Current Time: Jan 24, 2017 at 10:14:29 am

Latest Report: Jan 24, 2017 at 9:30 am


Visibility: 10 mi

Pressure: 30.24 "Hg

Humidity: 93%

Dew Point: 30 °F

Location of LinaresLocation

Past Weather in Linares — Graph

°F

Linares Temperature Yesterday

Maximum temperature yesterday: 54 °F (at 2:30 pm)
Minimum temperature yesterday: 25 °F (at 7:30 am)
Average temperature yesterday: 38 °F

High & Low Weather Summary for the Past Weeks

 TemperatureHumidityPressure
High63 °F (Jan 9, 6:00 pm)100% (Jan 9, 9:00 am)30.39 "Hg (Jan 9, 9:00 am)
Low21 °F (Jan 18, 7:30 am)23% (Jan 18, 2:00 am)29.86 "Hg (Jan 19, 2:30 pm)
Average40 °F73%30.13 "Hg
* Reported Jan 9 9:00 am — Jan 24 9:00 am, Linares, Weather by CustomWeather, © 2017

Note: Actual official high and low records may vary slightly from our data, if they occured in-between our weather recording intervals... More about our weather records

Advertising

Linares Weather History for the Previous 24 Hours

Scroll right to see more
 ConditionsComfort  
Time TempWeatherWind HumidityBarometerVisibility
9:00 am
Tue, Jan 24
25 °FSunny.1 mph100%30.24 "Hg10 mi
8:30 am25 °FSunny.No wind100%30.21 "Hg10 mi
8:00 am25 °FClear.1 mph100%30.21 "Hg10 mi
7:30 am27 °FClear.1 mph100%30.21 "Hg10 mi
7:00 am27 °FClear.No wind93%30.18 "Hg10 mi
6:30 am27 °FClear.No wind93%30.18 "Hg10 mi
6:00 am27 °FChilly.2 mph100%30.18 "HgN/A
5:30 am28 °FChilly.2 mph93%30.18 "HgN/A
5:00 am28 °FChilly.3 mph93%30.18 "HgN/A
4:30 am28 °FChilly.2 mph93%30.18 "HgN/A
4:00 am28 °FChilly.1 mph93%30.18 "HgN/A
3:30 am28 °FChilly.1 mph93%30.18 "HgN/A
3:00 am28 °FChilly.1 mph100%30.18 "HgN/A
2:30 am30 °FChilly.1 mph93%30.18 "HgN/A
2:00 am30 °FChilly.No wind93%30.18 "HgN/A
1:30 am32 °FChilly.1 mph93%30.18 "HgN/A
1:00 am32 °FChilly.3 mph93%30.18 "HgN/A
12:30 am32 °FChilly.No wind87%30.18 "HgN/A
12:00 am34 °FChilly.No wind87%30.18 "HgN/A
11:30 pm
Mon, Jan 23
34 °FChilly.1 mph87%30.15 "HgN/A
11:00 pm36 °FPassing clouds.1 mph81%30.15 "HgN/A
10:30 pm37 °FPassing clouds.1 mph81%30.15 "HgN/A
10:00 pm37 °FPassing clouds.2 mph81%30.12 "HgN/A
9:30 pm37 °FPassing clouds.2 mph81%30.12 "HgN/A
9:00 pm37 °FPassing clouds.No wind81%30.12 "HgN/A
8:30 pm43 °FPassing clouds.1 mph71%30.12 "HgN/A
8:00 pm46 °FPassing clouds.No wind62%30.09 "HgN/A
7:30 pm46 °FPassing clouds.2 mph62%30.09 "HgN/A
7:00 pm48 °FPassing clouds.6 mph58%30.09 "HgN/A
6:30 pm50 °FPassing clouds.9 mph54%30.07 "HgN/A
6:00 pm52 °FScattered clouds.12 mph54%30.07 "HgN/A
5:30 pm52 °FScattered clouds.12 mph54%30.07 "HgN/A
5:00 pm52 °FScattered clouds.7 mph50%30.04 "HgN/A
4:30 pm54 °FScattered clouds.1 mph51%30.04 "HgN/A
4:00 pm54 °FScattered clouds.3 mph47%30.04 "HgN/A
3:30 pm54 °FScattered clouds.6 mph47%30.04 "HgN/A
3:00 pm54 °FScattered clouds.7 mph47%30.04 "HgN/A
2:30 pm54 °FPassing clouds.6 mph47%30.04 "HgN/A
2:00 pm52 °FPassing clouds.2 mph54%30.04 "HgN/A
1:30 pm50 °FPassing clouds.2 mph58%30.07 "HgN/A
1:00 pm48 °FPassing clouds.2 mph62%30.07 "HgN/A
12:30 pm45 °FPassing clouds.2 mph66%30.09 "HgN/A
12:00 pm41 °FPassing clouds.2 mph81%30.09 "HgN/A
11:30 am39 °FPassing clouds.No wind81%30.09 "HgN/A
11:00 am37 °FSunny.No wind81%30.09 "Hg10 mi
10:30 am34 °FSunny.No wind87%30.09 "Hg10 mi
10:00 am34 °FSunny.No wind87%30.09 "Hg10 mi
Weather by CustomWeather, © 2017

See weather overviewHow to use our weather pages